Year,Month,Day,Hour,Minute,Value (Times are PST for temperature in C)
2017,06,26,00,00,12.70
2017,06,26,00,01,12.70
2017,06,26,00,02,12.70
2017,06,26,00,03,12.60
2017,06,26,00,04,12.60
2017,06,26,00,05,12.60
2017,06,26,00,06,12.60
2017,06,26,00,07,12.60
2017,06,26,00,08,12.60
2017,06,26,00,09,12.50
2017,06,26,00,10,12.50
2017,06,26,00,11,12.50
2017,06,26,00,12,12.50
2017,06,26,00,13,12.50
2017,06,26,00,14,12.50
2017,06,26,00,15,12.50
2017,06,26,00,16,12.40
2017,06,26,00,17,12.40
2017,06,26,00,18,12.40
2017,06,26,00,19,12.40
2017,06,26,00,20,12.40
2017,06,26,00,21,12.40
2017,06,26,00,22,12.30
2017,06,26,00,23,12.30
2017,06,26,00,24,12.30
2017,06,26,00,25,12.30
2017,06,26,00,26,12.30
2017,06,26,00,27,12.30
2017,06,26,00,28,12.20
2017,06,26,00,29,12.20
2017,06,26,00,30,12.20
2017,06,26,00,31,12.20
2017,06,26,00,32,12.20
2017,06,26,00,33,12.10
2017,06,26,00,34,12.10
2017,06,26,00,35,12.10
2017,06,26,00,36,12.10
2017,06,26,00,37,12.10
2017,06,26,00,38,12.10
2017,06,26,00,39,12.00
2017,06,26,00,40,12.00
2017,06,26,00,41,11.90
2017,06,26,00,42,11.90
2017,06,26,00,43,11.90
2017,06,26,00,44,11.90
2017,06,26,00,45,11.90
2017,06,26,00,46,11.80
2017,06,26,00,47,11.80
2017,06,26,00,48,11.80
2017,06,26,00,49,11.80
2017,06,26,00,50,11.80
2017,06,26,00,51,11.80
2017,06,26,00,52,11.80
2017,06,26,00,53,11.70
2017,06,26,00,54,11.70
2017,06,26,00,55,11.70
2017,06,26,00,56,11.70
2017,06,26,00,57,11.70
2017,06,26,00,58,11.70
2017,06,26,00,59,11.70
2017,06,26,01,00,11.80
2017,06,26,01,01,11.80
2017,06,26,01,02,11.80
2017,06,26,01,03,11.80
2017,06,26,01,04,11.80
2017,06,26,01,05,11.80
2017,06,26,01,06,11.80
2017,06,26,01,07,11.80
2017,06,26,01,08,11.80
2017,06,26,01,09,11.80
2017,06,26,01,10,11.80
2017,06,26,01,11,11.80
2017,06,26,01,12,11.80
2017,06,26,01,13,11.80
2017,06,26,01,14,11.80
2017,06,26,01,15,11.80
2017,06,26,01,16,11.80
2017,06,26,01,17,11.70
2017,06,26,01,18,11.70
2017,06,26,01,19,11.70
2017,06,26,01,20,11.70
2017,06,26,01,21,11.70
2017,06,26,01,22,11.60
2017,06,26,01,23,11.60
2017,06,26,01,24,11.60
2017,06,26,01,25,11.60
2017,06,26,01,26,11.50
2017,06,26,01,27,11.50
2017,06,26,01,28,11.50
2017,06,26,01,29,11.50
2017,06,26,01,30,11.40
2017,06,26,01,31,11.40
2017,06,26,01,32,11.40
2017,06,26,01,33,11.40
2017,06,26,01,34,11.40
2017,06,26,01,35,11.40
2017,06,26,01,36,11.40
2017,06,26,01,37,11.40
2017,06,26,01,38,11.40
2017,06,26,01,39,11.40
2017,06,26,01,40,11.30
2017,06,26,01,41,11.30
2017,06,26,01,42,11.30
2017,06,26,01,43,11.30
2017,06,26,01,44,11.30
2017,06,26,01,45,11.30
2017,06,26,01,46,11.30
2017,06,26,01,47,11.30
2017,06,26,01,48,11.30
2017,06,26,01,49,11.20
2017,06,26,01,50,11.20
2017,06,26,01,51,11.20
2017,06,26,01,52,11.20
2017,06,26,01,53,11.20
2017,06,26,01,54,11.20
2017,06,26,01,55,11.20
2017,06,26,01,56,11.20
2017,06,26,01,57,11.20
2017,06,26,01,58,11.20
2017,06,26,01,59,11.20
2017,06,26,02,00,11.20
2017,06,26,02,01,11.20
2017,06,26,02,02,11.20
2017,06,26,02,03,11.20
2017,06,26,02,04,11.20
2017,06,26,02,05,11.10
2017,06,26,02,06,11.10
2017,06,26,02,07,11.10
2017,06,26,02,08,11.10
2017,06,26,02,09,11.10
2017,06,26,02,10,11.10
2017,06,26,02,11,11.10
2017,06,26,02,12,11.10
2017,06,26,02,13,11.10
2017,06,26,02,14,11.10
2017,06,26,02,15,11.10
2017,06,26,02,16,11.10
2017,06,26,02,17,11.10
2017,06,26,02,18,11.10
2017,06,26,02,19,11.00
2017,06,26,02,20,11.00
2017,06,26,02,21,11.10
2017,06,26,02,22,11.10
2017,06,26,02,23,11.10
2017,06,26,02,24,11.10
2017,06,26,02,25,11.10
2017,06,26,02,26,11.20
2017,06,26,02,27,11.20
2017,06,26,02,28,11.20
2017,06,26,02,29,11.20
2017,06,26,02,30,11.20
2017,06,26,02,31,11.20
2017,06,26,02,32,11.30
2017,06,26,02,33,11.30
2017,06,26,02,34,11.50
2017,06,26,02,35,11.70
2017,06,26,02,36,11.90
2017,06,26,02,37,12.10
2017,06,26,02,38,12.30
2017,06,26,02,39,12.60
2017,06,26,02,40,12.80
2017,06,26,02,41,13.10
2017,06,26,02,42,13.20
2017,06,26,02,43,13.30
2017,06,26,02,44,13.40
2017,06,26,02,45,13.40
2017,06,26,02,46,13.40
2017,06,26,02,47,13.50
2017,06,26,02,48,13.50
2017,06,26,02,49,13.50
2017,06,26,02,50,13.60
2017,06,26,02,51,13.60
2017,06,26,02,52,13.50
2017,06,26,02,53,13.50
2017,06,26,02,54,13.50
2017,06,26,02,55,13.50
2017,06,26,02,56,13.60
2017,06,26,02,57,13.60
2017,06,26,02,58,13.60
2017,06,26,02,59,13.60
2017,06,26,03,00,13.60
2017,06,26,03,01,13.60
2017,06,26,03,02,13.60
2017,06,26,03,03,13.60
2017,06,26,03,04,13.60
2017,06,26,03,05,13.60
2017,06,26,03,06,13.60
2017,06,26,03,07,13.60
2017,06,26,03,08,13.60
2017,06,26,03,09,13.60
2017,06,26,03,10,13.50
2017,06,26,03,11,13.50
2017,06,26,03,12,13.50
2017,06,26,03,13,13.40
2017,06,26,03,14,13.40
2017,06,26,03,15,13.40
2017,06,26,03,16,13.40
2017,06,26,03,17,13.40
2017,06,26,03,18,13.40
2017,06,26,03,19,13.30
2017,06,26,03,20,13.30
2017,06,26,03,21,13.30
2017,06,26,03,22,13.30
2017,06,26,03,23,13.30
2017,06,26,03,24,13.30
2017,06,26,03,25,13.30
2017,06,26,03,26,13.20
2017,06,26,03,27,13.20
2017,06,26,03,28,13.20
2017,06,26,03,29,13.20
2017,06,26,03,30,13.30
2017,06,26,03,31,13.30
2017,06,26,03,32,13.30
2017,06,26,03,33,13.30
2017,06,26,03,34,13.30
2017,06,26,03,35,13.30
2017,06,26,03,36,13.30
2017,06,26,03,37,13.30
2017,06,26,03,38,13.30
2017,06,26,03,39,13.20
2017,06,26,03,40,13.20
2017,06,26,03,41,13.20
2017,06,26,03,42,13.20
2017,06,26,03,43,13.20
2017,06,26,03,44,13.20
2017,06,26,03,45,13.20
2017,06,26,03,46,13.20
2017,06,26,03,47,13.20
2017,06,26,03,48,13.10
2017,06,26,03,49,13.10
2017,06,26,03,50,13.10
2017,06,26,03,51,13.10
2017,06,26,03,52,13.10
2017,06,26,03,53,13.10
2017,06,26,03,54,13.00
2017,06,26,03,55,13.00
2017,06,26,03,56,13.00
2017,06,26,03,57,13.00
2017,06,26,03,58,12.90
2017,06,26,03,59,12.90
2017,06,26,04,00,12.90
2017,06,26,04,01,12.90
2017,06,26,04,02,12.90
2017,06,26,04,03,12.90
2017,06,26,04,04,12.90
2017,06,26,04,05,12.90
2017,06,26,04,06,12.90
2017,06,26,04,07,12.90
2017,06,26,04,08,12.90
2017,06,26,04,09,12.90
2017,06,26,04,10,12.90
2017,06,26,04,11,12.90
2017,06,26,04,12,12.90
2017,06,26,04,13,12.90
2017,06,26,04,14,12.90
2017,06,26,04,15,12.90
2017,06,26,04,16,12.90
2017,06,26,04,17,12.90
2017,06,26,04,18,12.90
2017,06,26,04,19,12.90
2017,06,26,04,20,12.90
2017,06,26,04,21,12.90
2017,06,26,04,22,12.90
2017,06,26,04,23,12.90
2017,06,26,04,24,12.80
2017,06,26,04,25,12.80
2017,06,26,04,26,12.80
2017,06,26,04,27,12.80
2017,06,26,04,28,12.80
2017,06,26,04,29,12.80
2017,06,26,04,30,12.80
2017,06,26,04,31,12.80
2017,06,26,04,32,12.80
2017,06,26,04,33,12.80
2017,06,26,04,34,12.80
2017,06,26,04,35,12.80
2017,06,26,04,36,12.80
2017,06,26,04,37,12.80
2017,06,26,04,38,12.80
2017,06,26,04,39,12.80
2017,06,26,04,40,12.80
2017,06,26,04,41,12.80
2017,06,26,04,42,12.80
2017,06,26,04,43,12.70
2017,06,26,04,44,12.70
2017,06,26,04,45,12.70
2017,06,26,04,46,12.70
2017,06,26,04,47,12.80
2017,06,26,04,48,12.80
2017,06,26,04,49,12.80
2017,06,26,04,50,12.80
2017,06,26,04,51,12.80
2017,06,26,04,52,12.80
2017,06,26,04,53,12.80
2017,06,26,04,54,12.80
2017,06,26,04,55,12.80
2017,06,26,04,56,12.80
2017,06,26,04,57,12.80
2017,06,26,04,58,12.70
2017,06,26,04,59,12.70
2017,06,26,05,00,12.70
2017,06,26,05,01,12.70
2017,06,26,05,02,12.70
2017,06,26,05,03,12.70
2017,06,26,05,04,12.70
2017,06,26,05,05,12.60
2017,06,26,05,06,12.60
2017,06,26,05,07,12.60
2017,06,26,05,08,12.60
2017,06,26,05,09,12.60
2017,06,26,05,10,12.60
2017,06,26,05,11,12.60
2017,06,26,05,12,12.60
2017,06,26,05,13,12.60
2017,06,26,05,14,12.60
2017,06,26,05,15,12.60
2017,06,26,05,16,12.60
2017,06,26,05,17,12.60
2017,06,26,05,18,12.60
2017,06,26,05,19,12.60
2017,06,26,05,20,12.60
2017,06,26,05,21,12.60
2017,06,26,05,22,12.60
2017,06,26,05,23,12.60
2017,06,26,05,24,12.60
2017,06,26,05,25,12.60
2017,06,26,05,26,12.60
2017,06,26,05,27,12.60
2017,06,26,05,28,12.60
2017,06,26,05,29,12.60
2017,06,26,05,30,12.60
2017,06,26,05,31,12.60
2017,06,26,05,32,12.60
2017,06,26,05,33,12.60
2017,06,26,05,34,12.60
2017,06,26,05,35,12.60
2017,06,26,05,36,12.60
2017,06,26,05,37,12.60
2017,06,26,05,38,12.60
2017,06,26,05,39,12.60
2017,06,26,05,40,12.60
2017,06,26,05,41,12.60
2017,06,26,05,42,12.60
2017,06,26,05,43,12.60
2017,06,26,05,44,12.60
2017,06,26,05,45,12.60
2017,06,26,05,46,12.60
2017,06,26,05,47,12.60
2017,06,26,05,48,12.50
2017,06,26,05,49,12.50
2017,06,26,05,50,12.50
2017,06,26,05,51,12.50
2017,06,26,05,52,12.50
2017,06,26,05,53,12.50
2017,06,26,05,54,12.50
2017,06,26,05,55,12.50
2017,06,26,05,56,12.50
2017,06,26,05,57,12.50
2017,06,26,05,58,12.50
2017,06,26,05,59,12.50
2017,06,26,06,00,12.50
2017,06,26,06,01,12.50
2017,06,26,06,02,12.50
2017,06,26,06,03,12.50
2017,06,26,06,04,12.50
2017,06,26,06,05,12.50
2017,06,26,06,06,12.50
2017,06,26,06,07,12.60
2017,06,26,06,08,12.60
2017,06,26,06,09,12.60
2017,06,26,06,10,12.60
2017,06,26,06,11,12.60
2017,06,26,06,12,12.60
2017,06,26,06,13,12.60
2017,06,26,06,14,12.60
2017,06,26,06,15,12.60
2017,06,26,06,16,12.60
2017,06,26,06,17,12.60
2017,06,26,06,18,12.60
2017,06,26,06,19,12.60
2017,06,26,06,20,12.60
2017,06,26,06,21,12.60
2017,06,26,06,22,12.60
2017,06,26,06,23,12.60
2017,06,26,06,24,12.60
2017,06,26,06,25,12.60
2017,06,26,06,26,12.60
2017,06,26,06,27,12.60
2017,06,26,06,28,12.60
2017,06,26,06,29,12.60
2017,06,26,06,30,12.60
2017,06,26,06,31,12.60
2017,06,26,06,32,12.60
2017,06,26,06,33,12.60
2017,06,26,06,34,12.60
2017,06,26,06,35,12.60
2017,06,26,06,36,12.60
2017,06,26,06,37,12.60
2017,06,26,06,38,12.50
2017,06,26,06,39,12.50
2017,06,26,06,40,12.50
2017,06,26,06,41,12.50
2017,06,26,06,42,12.50
2017,06,26,06,43,12.50
2017,06,26,06,44,12.50
2017,06,26,06,45,12.50
2017,06,26,06,46,12.50
2017,06,26,06,47,12.50
2017,06,26,06,48,12.60
2017,06,26,06,49,12.60
2017,06,26,06,50,12.60
2017,06,26,06,51,12.60
2017,06,26,06,52,12.60
2017,06,26,06,53,12.60
2017,06,26,06,54,12.60
2017,06,26,06,55,12.60
2017,06,26,06,56,12.60
2017,06,26,06,57,12.60
2017,06,26,06,58,12.60
2017,06,26,06,59,12.60
2017,06,26,07,00,12.60
2017,06,26,07,01,12.60
2017,06,26,07,02,12.60
2017,06,26,07,03,12.60
2017,06,26,07,04,12.60
2017,06,26,07,05,12.60
2017,06,26,07,06,12.60
2017,06,26,07,07,12.60
2017,06,26,07,08,12.60
2017,06,26,07,09,12.60
2017,06,26,07,10,12.70
2017,06,26,07,11,12.70
2017,06,26,07,12,12.70
2017,06,26,07,13,12.70
2017,06,26,07,14,12.70
2017,06,26,07,15,12.70
2017,06,26,07,16,12.70
2017,06,26,07,17,12.70
2017,06,26,07,18,12.70
2017,06,26,07,19,12.70
2017,06,26,07,20,12.70
2017,06,26,07,21,12.70
2017,06,26,07,22,12.70
2017,06,26,07,23,12.70
2017,06,26,07,24,12.70
2017,06,26,07,25,12.70
2017,06,26,07,26,12.70
2017,06,26,07,27,12.70
2017,06,26,07,28,12.80
2017,06,26,07,29,12.80
2017,06,26,07,30,12.80
2017,06,26,07,31,12.80
2017,06,26,07,32,12.80
2017,06,26,07,33,12.80
2017,06,26,07,34,12.80
2017,06,26,07,35,12.80
2017,06,26,07,36,12.80
2017,06,26,07,37,12.90
2017,06,26,07,38,12.90
2017,06,26,07,39,12.90
2017,06,26,07,40,12.90
2017,06,26,07,41,12.90
2017,06,26,07,42,13.00
2017,06,26,07,43,13.00
2017,06,26,07,44,13.00
2017,06,26,07,45,13.00
2017,06,26,07,46,12.90
2017,06,26,07,47,12.90
2017,06,26,07,48,12.90
2017,06,26,07,49,12.90
2017,06,26,07,50,12.90
2017,06,26,07,51,12.90
2017,06,26,07,52,12.90
2017,06,26,07,53,13.00
2017,06,26,07,54,13.00
2017,06,26,07,55,13.00
2017,06,26,07,56,13.10
2017,06,26,07,57,13.10
2017,06,26,07,58,13.10
2017,06,26,07,59,13.10
2017,06,26,08,00,13.10
2017,06,26,08,01,13.20
2017,06,26,08,02,13.20
2017,06,26,08,03,13.20
2017,06,26,08,04,13.20
2017,06,26,08,05,13.20
2017,06,26,08,06,13.30
2017,06,26,08,07,13.30
2017,06,26,08,08,13.40
2017,06,26,08,09,13.40
2017,06,26,08,10,13.40
2017,06,26,08,11,13.40
2017,06,26,08,12,13.40
2017,06,26,08,13,13.50
2017,06,26,08,14,13.50
2017,06,26,08,15,13.50
2017,06,26,08,16,13.50
2017,06,26,08,17,13.50
2017,06,26,08,18,13.50
2017,06,26,08,19,13.50
2017,06,26,08,20,13.50
2017,06,26,08,21,13.50
2017,06,26,08,22,13.50
2017,06,26,08,23,13.50
2017,06,26,08,24,13.60
2017,06,26,08,25,13.60
2017,06,26,08,26,13.60
2017,06,26,08,27,13.70
2017,06,26,08,28,13.70
2017,06,26,08,29,13.70
2017,06,26,08,30,13.70
2017,06,26,08,31,13.80
2017,06,26,08,32,13.80
2017,06,26,08,33,13.80
2017,06,26,08,34,13.80
2017,06,26,08,35,13.80
2017,06,26,08,36,13.80
2017,06,26,08,37,13.90
2017,06,26,08,38,13.90
2017,06,26,08,39,14.00
2017,06,26,08,40,14.00
2017,06,26,08,41,14.10
2017,06,26,08,42,14.10
2017,06,26,08,43,14.10
2017,06,26,08,44,14.10
2017,06,26,08,45,14.10
2017,06,26,08,46,14.10
2017,06,26,08,47,14.10
2017,06,26,08,48,14.10
2017,06,26,08,49,14.10
2017,06,26,08,50,14.10
2017,06,26,08,51,14.10
2017,06,26,08,52,14.10
2017,06,26,08,53,14.10
2017,06,26,08,54,14.10
2017,06,26,08,55,14.20
2017,06,26,08,56,14.20
2017,06,26,08,57,14.20
2017,06,26,08,58,14.20
2017,06,26,08,59,14.30
2017,06,26,09,00,14.30
2017,06,26,09,01,14.20
2017,06,26,09,02,14.20
2017,06,26,09,03,14.20
2017,06,26,09,04,14.20
2017,06,26,09,05,14.20
2017,06,26,09,06,14.20
2017,06,26,09,07,14.30
2017,06,26,09,08,14.30
2017,06,26,09,09,14.30
2017,06,26,09,10,14.30
2017,06,26,09,11,14.30
2017,06,26,09,12,14.30
2017,06,26,09,13,14.40
2017,06,26,09,14,14.40
2017,06,26,09,15,14.40
2017,06,26,09,16,14.50
2017,06,26,09,17,14.60
2017,06,26,09,18,14.60
2017,06,26,09,19,14.70
2017,06,26,09,20,14.70
2017,06,26,09,21,14.70
2017,06,26,09,22,14.70
2017,06,26,09,23,14.70
2017,06,26,09,24,14.80
2017,06,26,09,25,14.80
2017,06,26,09,26,14.80
2017,06,26,09,27,14.80
2017,06,26,09,28,14.80
2017,06,26,09,29,14.90
2017,06,26,09,30,14.90
2017,06,26,09,31,14.90
2017,06,26,09,32,14.90
2017,06,26,09,33,14.90
2017,06,26,09,34,14.90
2017,06,26,09,35,14.90
2017,06,26,09,36,14.90
2017,06,26,09,37,14.90
2017,06,26,09,38,14.90
2017,06,26,09,39,14.90
2017,06,26,09,40,14.90
2017,06,26,09,41,15.00
2017,06,26,09,42,15.00
2017,06,26,09,43,15.00
2017,06,26,09,44,15.00
2017,06,26,09,45,15.10
2017,06,26,09,46,15.10
2017,06,26,09,47,15.10
2017,06,26,09,48,15.10
2017,06,26,09,49,15.20
2017,06,26,09,50,15.20
2017,06,26,09,51,15.30
2017,06,26,09,52,15.30
2017,06,26,09,53,15.40
2017,06,26,09,54,15.50
2017,06,26,09,55,15.60
2017,06,26,09,56,15.70
2017,06,26,09,57,15.70
2017,06,26,09,58,15.80
2017,06,26,09,59,15.80
2017,06,26,10,00,15.90
2017,06,26,10,01,16.00
2017,06,26,10,02,16.00
2017,06,26,10,03,16.10
2017,06,26,10,04,16.10
2017,06,26,10,05,16.20
2017,06,26,10,06,16.20
2017,06,26,10,07,16.30
2017,06,26,10,08,16.30
2017,06,26,10,09,16.30
2017,06,26,10,10,16.40
2017,06,26,10,11,16.50
2017,06,26,10,12,16.50
2017,06,26,10,13,16.60
2017,06,26,10,14,16.60
2017,06,26,10,15,16.60
2017,06,26,10,16,16.60
2017,06,26,10,17,16.70
2017,06,26,10,18,16.70
2017,06,26,10,19,16.70
2017,06,26,10,20,16.70
2017,06,26,10,21,16.70
2017,06,26,10,22,16.70
2017,06,26,10,23,16.70
2017,06,26,10,24,16.70
2017,06,26,10,25,16.80
2017,06,26,10,26,16.80
2017,06,26,10,27,16.80
2017,06,26,10,28,16.80
2017,06,26,10,29,16.80
2017,06,26,10,30,16.80
2017,06,26,10,31,16.90
2017,06,26,10,32,16.90
2017,06,26,10,33,16.90
2017,06,26,10,34,17.00
2017,06,26,10,35,17.00
2017,06,26,10,36,17.10
2017,06,26,10,37,17.10
2017,06,26,10,38,17.10
2017,06,26,10,39,17.20
2017,06,26,10,40,17.20
2017,06,26,10,41,17.20
2017,06,26,10,42,17.30
2017,06,26,10,43,17.30
2017,06,26,10,44,17.40
2017,06,26,10,45,17.40
2017,06,26,10,46,17.50
2017,06,26,10,47,17.60
2017,06,26,10,48,17.70
2017,06,26,10,49,17.70
2017,06,26,10,50,17.80
2017,06,26,10,51,17.80
2017,06,26,10,52,17.80
2017,06,26,10,53,17.80
2017,06,26,10,54,17.90
2017,06,26,10,55,17.90
2017,06,26,10,56,17.90
2017,06,26,10,57,17.90
2017,06,26,10,58,17.90
2017,06,26,10,59,17.90
2017,06,26,11,00,18.00
2017,06,26,11,01,18.00
2017,06,26,11,02,18.10
2017,06,26,11,03,18.20
2017,06,26,11,04,18.20
2017,06,26,11,05,18.30
2017,06,26,11,06,18.30
2017,06,26,11,07,18.30
2017,06,26,11,08,18.30
2017,06,26,11,09,18.40
2017,06,26,11,10,18.40
2017,06,26,11,11,18.50
2017,06,26,11,12,18.60
2017,06,26,11,13,18.60
2017,06,26,11,14,18.70
2017,06,26,11,15,18.70
2017,06,26,11,16,18.70
2017,06,26,11,17,18.70
2017,06,26,11,18,18.70
2017,06,26,11,19,18.80
2017,06,26,11,20,18.80
2017,06,26,11,21,18.90
2017,06,26,11,22,19.00
2017,06,26,11,23,19.10
2017,06,26,11,24,19.20
2017,06,26,11,25,19.20
2017,06,26,11,26,19.20
2017,06,26,11,27,19.20
2017,06,26,11,28,19.30
2017,06,26,11,29,19.40
2017,06,26,11,30,19.40
2017,06,26,11,31,19.50
2017,06,26,11,32,19.60
2017,06,26,11,33,19.60
2017,06,26,11,34,19.60
2017,06,26,11,35,19.60
2017,06,26,11,36,19.60
2017,06,26,11,37,19.50
2017,06,26,11,38,19.50
2017,06,26,11,39,19.50
2017,06,26,11,40,19.50
2017,06,26,11,41,19.60
2017,06,26,11,42,19.60
2017,06,26,11,43,19.50
2017,06,26,11,44,19.50
2017,06,26,11,45,19.60
2017,06,26,11,46,19.70
2017,06,26,11,47,19.80
2017,06,26,11,48,19.80
2017,06,26,11,49,19.90
2017,06,26,11,50,19.90
2017,06,26,11,51,20.00
2017,06,26,11,52,19.90
2017,06,26,11,53,19.90
2017,06,26,11,54,19.90
2017,06,26,11,55,20.00
2017,06,26,11,56,20.10
2017,06,26,11,57,20.10
2017,06,26,11,58,20.20
2017,06,26,11,59,20.20
2017,06,26,12,00,20.30
2017,06,26,12,01,20.30
2017,06,26,12,02,20.30
2017,06,26,12,03,20.40
2017,06,26,12,04,20.40
2017,06,26,12,05,20.60
2017,06,26,12,06,20.60
2017,06,26,12,07,20.60
2017,06,26,12,08,20.60
2017,06,26,12,09,20.60
2017,06,26,12,10,20.60
2017,06,26,12,11,20.70
2017,06,26,12,12,20.80
2017,06,26,12,13,20.80
2017,06,26,12,14,20.80
2017,06,26,12,15,20.80
2017,06,26,12,16,20.80
2017,06,26,12,17,20.70
2017,06,26,12,18,20.80
2017,06,26,12,19,20.80
2017,06,26,12,20,20.90
2017,06,26,12,21,20.90
2017,06,26,12,22,20.90
2017,06,26,12,23,20.90
2017,06,26,12,24,20.90
2017,06,26,12,25,21.00
2017,06,26,12,26,21.10
2017,06,26,12,27,21.20
2017,06,26,12,28,21.30
2017,06,26,12,29,21.40
2017,06,26,12,30,21.30
2017,06,26,12,31,21.30
2017,06,26,12,32,21.30
2017,06,26,12,33,21.30
2017,06,26,12,34,21.30
2017,06,26,12,35,21.30
2017,06,26,12,36,21.20
2017,06,26,12,37,21.20
2017,06,26,12,38,21.30
2017,06,26,12,39,21.30
2017,06,26,12,40,21.30
2017,06,26,12,41,21.30
2017,06,26,12,42,21.30
2017,06,26,12,43,21.20
2017,06,26,12,44,21.30
2017,06,26,12,45,21.30
2017,06,26,12,46,21.50
2017,06,26,12,47,21.60
2017,06,26,12,48,21.70
2017,06,26,12,49,21.70
2017,06,26,12,50,21.80
2017,06,26,12,51,21.80
2017,06,26,12,52,21.80
2017,06,26,12,53,21.90
2017,06,26,12,54,21.90
2017,06,26,12,55,21.90
2017,06,26,12,56,21.90
2017,06,26,12,57,22.00
2017,06,26,12,58,22.00
2017,06,26,12,59,22.00
2017,06,26,13,00,22.10
2017,06,26,13,01,22.10
2017,06,26,13,02,22.10
2017,06,26,13,03,22.20
2017,06,26,13,04,22.20
2017,06,26,13,05,22.30
2017,06,26,13,06,22.30
2017,06,26,13,07,22.30
2017,06,26,13,08,22.20
2017,06,26,13,09,22.20
2017,06,26,13,10,22.20
2017,06,26,13,11,22.30
2017,06,26,13,12,22.30
2017,06,26,13,13,22.40
2017,06,26,13,14,22.40
2017,06,26,13,15,22.40
2017,06,26,13,16,22.40
2017,06,26,13,17,22.50
2017,06,26,13,18,22.60
2017,06,26,13,19,22.60
2017,06,26,13,20,22.70
2017,06,26,13,21,22.80
2017,06,26,13,22,22.80
2017,06,26,13,23,22.90
2017,06,26,13,24,22.90
2017,06,26,13,25,22.80
2017,06,26,13,26,22.80
2017,06,26,13,27,22.80
2017,06,26,13,28,22.80
2017,06,26,13,29,22.80
2017,06,26,13,30,22.80
2017,06,26,13,31,22.70
2017,06,26,13,32,22.60
2017,06,26,13,33,22.50
2017,06,26,13,34,22.40
2017,06,26,13,35,22.20
2017,06,26,13,36,22.10
2017,06,26,13,37,22.00
2017,06,26,13,38,21.90
2017,06,26,13,39,21.90
2017,06,26,13,40,21.80
2017,06,26,13,41,21.80
2017,06,26,13,42,21.80
2017,06,26,13,43,21.70
2017,06,26,13,44,21.70
2017,06,26,13,45,21.60
2017,06,26,13,46,21.50
2017,06,26,13,47,21.40
2017,06,26,13,48,21.30
2017,06,26,13,49,21.20
2017,06,26,13,50,21.20
2017,06,26,13,51,21.20
2017,06,26,13,52,21.20
2017,06,26,13,53,21.20
2017,06,26,13,54,21.20
2017,06,26,13,55,21.30
2017,06,26,13,56,21.30
2017,06,26,13,57,21.20
2017,06,26,13,58,21.10
2017,06,26,13,59,21.00
2017,06,26,14,00,20.90
2017,06,26,14,01,20.80
2017,06,26,14,02,20.80
2017,06,26,14,03,20.80
2017,06,26,14,04,20.80
2017,06,26,14,05,20.70
2017,06,26,14,06,20.80
2017,06,26,14,07,20.80
2017,06,26,14,08,20.80
2017,06,26,14,09,20.90
2017,06,26,14,10,20.90
2017,06,26,14,11,20.90
2017,06,26,14,12,20.80
2017,06,26,14,13,20.80
2017,06,26,14,14,20.70
2017,06,26,14,15,20.70
2017,06,26,14,16,20.70
2017,06,26,14,17,20.80
2017,06,26,14,18,20.90
2017,06,26,14,19,21.00
2017,06,26,14,20,21.00
2017,06,26,14,21,21.10
2017,06,26,14,22,21.20
2017,06,26,14,23,21.30
2017,06,26,14,24,21.30
2017,06,26,14,25,21.30
2017,06,26,14,26,21.30
2017,06,26,14,27,21.30
2017,06,26,14,28,21.30
2017,06,26,14,29,21.40
2017,06,26,14,30,21.40
2017,06,26,14,31,21.40
2017,06,26,14,32,21.50
2017,06,26,14,33,21.50
2017,06,26,14,34,21.60
2017,06,26,14,35,21.60
2017,06,26,14,36,21.60
2017,06,26,14,37,21.60
2017,06,26,14,38,21.60
2017,06,26,14,39,21.50
2017,06,26,14,40,21.50
2017,06,26,14,41,21.40
2017,06,26,14,42,21.30
2017,06,26,14,43,21.30
2017,06,26,14,44,21.20
2017,06,26,14,45,21.20
2017,06,26,14,46,21.20
2017,06,26,14,47,21.20
2017,06,26,14,48,21.20
2017,06,26,14,49,21.20
2017,06,26,14,50,21.20
2017,06,26,14,51,21.30
2017,06,26,14,52,21.30
2017,06,26,14,53,21.30
2017,06,26,14,54,21.30
2017,06,26,14,55,21.20
2017,06,26,14,56,21.10
2017,06,26,14,57,21.00
2017,06,26,14,58,21.00
2017,06,26,14,59,20.90
2017,06,26,15,00,20.90
2017,06,26,15,01,20.90
2017,06,26,15,02,20.90
2017,06,26,15,03,20.80
2017,06,26,15,04,20.90
2017,06,26,15,05,20.90
2017,06,26,15,06,20.90
2017,06,26,15,07,21.00
2017,06,26,15,08,21.00
2017,06,26,15,09,21.10
2017,06,26,15,10,21.10
2017,06,26,15,11,21.10
2017,06,26,15,12,21.20
2017,06,26,15,13,21.20
2017,06,26,15,14,21.20
2017,06,26,15,15,21.10
2017,06,26,15,16,21.10
2017,06,26,15,17,21.10
2017,06,26,15,18,21.20
2017,06,26,15,19,21.20
2017,06,26,15,20,21.20
2017,06,26,15,21,21.20
2017,06,26,15,22,21.20
2017,06,26,15,23,21.20
2017,06,26,15,24,21.20
2017,06,26,15,25,21.10
2017,06,26,15,26,21.10
2017,06,26,15,27,21.10
2017,06,26,15,28,21.10
2017,06,26,15,29,21.10
2017,06,26,15,30,21.10
2017,06,26,15,31,21.10
2017,06,26,15,32,21.00
2017,06,26,15,33,21.00
2017,06,26,15,34,20.90
2017,06,26,15,35,20.90
2017,06,26,15,36,20.80
2017,06,26,15,37,20.80
2017,06,26,15,38,20.80
2017,06,26,15,39,20.80
2017,06,26,15,40,20.70
2017,06,26,15,41,20.70
2017,06,26,15,42,20.70
2017,06,26,15,43,20.70
2017,06,26,15,44,20.70
2017,06,26,15,45,20.60
2017,06,26,15,46,20.60
2017,06,26,15,47,20.60
2017,06,26,15,48,20.70
2017,06,26,15,49,20.80
2017,06,26,15,50,20.90
2017,06,26,15,51,20.90
2017,06,26,15,52,21.00
2017,06,26,15,53,21.10
2017,06,26,15,54,21.10
2017,06,26,15,55,21.10
2017,06,26,15,56,21.20
2017,06,26,15,57,21.30
2017,06,26,15,58,21.30
2017,06,26,15,59,21.30
2017,06,26,16,00,21.20
2017,06,26,16,01,21.10
2017,06,26,16,02,21.00
2017,06,26,16,03,21.00
2017,06,26,16,04,21.00
2017,06,26,16,05,21.10
2017,06,26,16,06,21.10
2017,06,26,16,07,21.10
2017,06,26,16,08,21.10
2017,06,26,16,09,21.10
2017,06,26,16,10,21.10
2017,06,26,16,11,21.20
2017,06,26,16,12,21.20
2017,06,26,16,13,21.20
2017,06,26,16,14,21.20
2017,06,26,16,15,21.20
2017,06,26,16,16,21.20
2017,06,26,16,17,21.20
2017,06,26,16,18,21.20
2017,06,26,16,19,21.20
2017,06,26,16,20,21.20
2017,06,26,16,21,21.10
2017,06,26,16,22,21.10
2017,06,26,16,23,21.10
2017,06,26,16,24,21.10
2017,06,26,16,25,21.10
2017,06,26,16,26,21.00
2017,06,26,16,27,21.00
2017,06,26,16,28,20.90
2017,06,26,16,29,20.80
2017,06,26,16,30,20.90
2017,06,26,16,31,21.00
2017,06,26,16,32,21.10
2017,06,26,16,33,21.10
2017,06,26,16,34,21.10
2017,06,26,16,35,21.10
2017,06,26,16,36,21.20
2017,06,26,16,37,21.20
2017,06,26,16,38,21.30
2017,06,26,16,39,21.50
2017,06,26,16,40,21.60
2017,06,26,16,41,21.70
2017,06,26,16,42,21.70
2017,06,26,16,43,21.70
2017,06,26,16,44,21.70
2017,06,26,16,45,21.70
2017,06,26,16,46,21.70
2017,06,26,16,47,21.70
2017,06,26,16,48,21.70
2017,06,26,16,49,21.70
2017,06,26,16,50,21.70
2017,06,26,16,51,21.70
2017,06,26,16,52,21.60
2017,06,26,16,53,21.60
2017,06,26,16,54,21.60
2017,06,26,16,55,21.60
2017,06,26,16,56,21.60
2017,06,26,16,57,21.50
2017,06,26,16,58,21.50
2017,06,26,16,59,21.50
2017,06,26,17,00,21.50
2017,06,26,17,01,21.50
2017,06,26,17,02,21.40
2017,06,26,17,03,21.30
2017,06,26,17,04,21.30
2017,06,26,17,05,21.30
2017,06,26,17,06,21.30
2017,06,26,17,07,21.30
2017,06,26,17,08,21.30
2017,06,26,17,09,21.30
2017,06,26,17,10,21.40
2017,06,26,17,11,21.40
2017,06,26,17,12,21.40
2017,06,26,17,13,21.50
2017,06,26,17,14,21.50
2017,06,26,17,15,21.70
2017,06,26,17,16,21.80
2017,06,26,17,17,22.00
2017,06,26,17,18,22.10
2017,06,26,17,19,22.20